Flag for Norway Weather past 2 weeks in Eidsvoll, Norway

Now
73 °F

Sunny.


Feels Like: 77 °F
Forecast: 51 / 66 °F
Wind: 21 mph from South

Location: Oslo Gardermoen Airport

Current Time: Jul 30, 2014 at 8:13:02 PM

Latest Report: Jul 30, 2014 at 7:20 PM


Visibility: 10 mi

Pressure: 29.59 "Hg

Humidity: 44%

Dew point: 50 °F

Location of EidsvollLocation

Historic Weather in Eidsvoll — Graph

°F

Eidsvoll temperature yesterday

Maximum temperature yesterday: 81 °F (at 4:50 PM)
Minimum temperature yesterday: 59 °F (at 4:20 AM)
Average temperature yesterday: 69 °F

Past Weeks' High & Low Weather Summary

 TemperatureHumidityPressure
High88 °F (Jul 23, 4:50 PM)100% (Jul 16, 12:50 AM)30.33 "Hg (Jul 16, 12:50 AM)
Low50 °F (Jul 18, 3:20 AM)24% (Jul 23, 6:50 PM)29.59 "Hg (Jul 30, 2:50 PM)
Average69 °F65%30.05 "Hg
* Reported Jul 15 6:20 PM — Jul 30 6:50 PM, Eidsvoll, Weather by CustomWeather, © 2014

Note: Actual official high and low records may vary slightly from our data, if they occured in-between our weather recording intervals... More about our weather records

Advertising

Eidsvoll weather history for previous 24 hours

 ConditionsComfort  
Time TempWeatherWind HumidityBarometerVisibility
6:50 PM
Jul 30
72 °FScattered clouds.20 mph50%29.59 "HgN/A
6:20 PM73 °FSunny.18 mph50%29.59 "Hg10 mi
5:50 PM73 °FSunny.22 mph47%29.59 "Hg10 mi
5:20 PM73 °FPassing clouds.21 mph44%29.59 "HgN/A
4:50 PM75 °FPassing clouds.21 mph44%29.59 "HgN/A
4:20 PM77 °FPassing clouds.20 mph42%29.59 "HgN/A
3:50 PM77 °FSunny.17 mph42%29.59 "Hg10 mi
3:20 PM75 °FPartly sunny.15 mph44%29.59 "HgN/A
2:50 PM75 °FPartly sunny.13 mph47%29.59 "HgN/A
2:20 PM75 °FScattered clouds.8 mph50%29.62 "HgN/A
1:50 PM73 °FScattered clouds.13 mph53%29.62 "HgN/A
1:20 PM73 °FBroken clouds.10 mph57%29.62 "HgN/A
12:50 PM72 °FBroken clouds.7 mph57%29.62 "HgN/A
12:20 PM72 °FBroken clouds.8 mph53%29.62 "HgN/A
11:50 AM70 °FScattered clouds.10 mph60%29.62 "HgN/A
11:20 AM70 °FScattered clouds.9 mph57%29.65 "HgN/A
10:50 AM68 °FScattered clouds.7 mph60%29.65 "HgN/A
10:20 AM66 °FBroken clouds.7 mph78%29.65 "HgN/A
9:50 AM64 °FBroken clouds.8 mph83%29.65 "HgN/A
9:20 AM63 °FBroken clouds.6 mph88%29.65 "HgN/A
8:50 AM61 °FPartly sunny.8 mph94%29.65 "HgN/A
8:20 AM61 °FPartly sunny.7 mph88%29.65 "HgN/A
7:50 AM61 °FPartly sunny.8 mph88%29.65 "HgN/A
7:20 AM61 °FBroken clouds.5 mph88%29.65 "HgN/A
6:50 AM61 °FPartly sunny.6 mph88%29.68 "HgN/A
6:20 AM59 °FPartly sunny.7 mph88%29.68 "HgN/A
5:50 AM59 °FBroken clouds.6 mph94%29.68 "HgN/A
5:20 AM59 °FPassing clouds.7 mph94%29.68 "HgN/A
4:50 AM59 °FPartly cloudy.6 mph88%29.68 "HgN/A
4:20 AM59 °FPartly cloudy.6 mph88%29.68 "HgN/A
3:50 AM61 °FPassing clouds.6 mph83%29.68 "HgN/A
3:20 AM61 °FPassing clouds.3 mph88%29.68 "HgN/A
2:50 AM61 °FPassing clouds.6 mph88%29.71 "HgN/A
2:20 AM63 °FPartly cloudy.8 mph83%29.71 "HgN/A
1:50 AM63 °FPassing clouds.8 mph83%29.71 "HgN/A
1:20 AM63 °FPartly cloudy.9 mph83%29.71 "HgN/A
12:50 AM61 °FPassing clouds.8 mph88%29.71 "HgN/A
12:20 AM63 °FClear.9 mph83%29.74 "Hg10 mi
11:50 PM
Jul 29
63 °FClear.7 mph77%29.74 "Hg10 mi
11:20 PM63 °FClear.8 mph77%29.74 "Hg10 mi
10:50 PM64 °FSunny.8 mph73%29.74 "Hg10 mi
10:20 PM66 °FSunny.8 mph68%29.74 "Hg10 mi
9:50 PM68 °FPassing clouds.7 mph60%29.74 "HgN/A
9:20 PM70 °FSunny.8 mph60%29.74 "Hg10 mi
8:50 PM72 °FPassing clouds.9 mph61%29.74 "HgN/A
8:20 PM73 °FSunny.10 mph57%29.74 "Hg10 mi
Weather by CustomWeather, © 2014

See weather overviewHow to use our weather pages